Richmond, KY

7:37 PM EST on January 24, 2017 (GMT -0500)
Richmond

Weather History for KI39 - January, 2013

Change the Weather History Date:

Sunday, January 20, 2013

  Actual Average (KLEX) Record (KLEX)
Temperature  
Mean Temperature 37 °F -  
Max Temperature 46 °F 37 °F 70 °F (1906)
Min Temperature 28 °F 23 °F -18 °F (1985)
Degree Days  
Heating Degree Days 28    
Moisture  
Dew Point 22 °F    
Average Humidity 50    
Maximum Humidity 75    
Minimum Humidity 29    
Precipitation  
Precipitation 0.00 in - - ()
Sea Level Pressure  
Sea Level Pressure 30.14 in    
Wind  
Wind Speed 11 mph (West)    
Max Wind Speed 20 mph    
Max Gust Speed 28 mph    
Visibility 10 miles    
Events      
Averages and records for this station are not official NWS values.
T = Trace of Precipitation, MM = Missing Value Source: NWS Daily Summary

Daily Weather History Graph

Daily Weather History Graph

Search for Another Location

Airport or City:

Trip Planner

Search our weather history database for the weather conditions in past years. The results will help you decide how hot, cold, wet, or windy it might be!

Date:

Astronomy

Jan. 20, 2013 Rise Set
Actual Time 7:48 AM EST 5:48 PM EST
Civil Twilight 7:20 AM EST 6:16 PM EST
Nautical Twilight 6:48 AM EST 6:48 PM EST
Astronomical Twilight 6:17 AM EST 7:19 PM EST
Moon 12:48 PM EST (1/20) 2:21 AM EST (1/20)
Length of Visible Light 10h 55m
Length of Day
9h 59m
Waxing Gibbous, 66% of the Moon is Illuminated
Jan 20
Waxing Gibbous
Jan 26
Full
Feb 3
Last Quarter
Feb 10
New
Feb 17
First Quarter

Hourly Weather History & Observations

Time (EST) Temp. Windchill Dew Point Humidity Pressure Visibility Wind Dir Wind Speed Gust Speed Precip Events Conditions
12:15 AM 44.6 °F 37.4 °F 28.4 °F 53% 30.06 in 10.0 mi SW 16.1 mph 20.7 mph N/A   Clear
12:35 AM 44.6 °F 37.2 °F 28.4 °F 53% 30.06 in 10.0 mi SW 17.3 mph 27.6 mph N/A   Clear
12:55 AM 44.6 °F 36.6 °F 28.4 °F 53% 30.06 in 10.0 mi WSW 19.6 mph 26.5 mph N/A   Clear
1:15 AM 46.4 °F 39.8 °F 28.4 °F 50% 30.06 in 10.0 mi SW 16.1 mph 23.0 mph N/A   Clear
1:35 AM 44.6 °F 37.8 °F 28.4 °F 53% 30.06 in 10.0 mi WSW 15.0 mph 19.6 mph N/A   Clear
1:55 AM 44.6 °F 37.8 °F 28.4 °F 53% 30.06 in 10.0 mi SW 15.0 mph 25.3 mph N/A   Clear
2:15 AM 44.6 °F 38.1 °F 28.4 °F 53% 30.06 in 10.0 mi WSW 13.8 mph 19.6 mph N/A   Clear
2:35 AM 44.6 °F 38.1 °F 28.4 °F 53% 30.07 in 10.0 mi SW 13.8 mph 20.7 mph N/A   Clear
2:55 AM 42.8 °F 36.2 °F 28.4 °F 57% 30.07 in 10.0 mi SW 12.7 mph 19.6 mph N/A   Clear
3:15 AM 42.8 °F 36.6 °F 28.4 °F 57% 30.07 in 10.0 mi SW 11.5 mph 18.4 mph N/A   Clear
3:35 AM 42.8 °F 35.8 °F 28.4 °F 57% 30.08 in 10.0 mi SW 13.8 mph 19.6 mph N/A   Clear
3:55 AM 42.8 °F 35.8 °F 28.4 °F 57% 30.08 in 10.0 mi WSW 13.8 mph - N/A   Clear
4:15 AM 42.8 °F 36.6 °F 28.4 °F 57% 30.08 in 10.0 mi WSW 11.5 mph 18.4 mph N/A   Clear
4:35 AM 42.8 °F 36.6 °F 28.4 °F 57% 30.08 in 10.0 mi WSW 11.5 mph 17.3 mph N/A   Clear
4:55 AM 42.8 °F 36.6 °F 30.2 °F 61% 30.08 in 10.0 mi SW 11.5 mph - N/A   Clear
5:15 AM 41.0 °F 34.3 °F 30.2 °F 65% 30.08 in 10.0 mi SW 11.5 mph - N/A   Clear
5:35 AM 41.0 °F 34.7 °F 30.2 °F 65% 30.09 in 10.0 mi WSW 10.4 mph 17.3 mph N/A   Clear
5:55 AM 41.0 °F 34.7 °F 30.2 °F 65% 30.09 in 10.0 mi WSW 10.4 mph - N/A   Clear
6:15 AM 41.0 °F 34.7 °F 30.2 °F 65% 30.10 in 10.0 mi WSW 10.4 mph - N/A   Clear
6:35 AM 39.2 °F 33.0 °F 30.2 °F 70% 30.11 in 10.0 mi WSW 9.2 mph - N/A   Clear
6:55 AM 39.2 °F 32.5 °F 30.2 °F 70% 30.12 in 10.0 mi WSW 10.4 mph - N/A   Clear
7:15 AM 39.2 °F 33.0 °F 30.2 °F 70% 30.12 in 10.0 mi WSW 9.2 mph - N/A   Clear
7:35 AM 39.2 °F 33.6 °F 30.2 °F 70% 30.13 in 10.0 mi WSW 8.1 mph - N/A   Clear
7:55 AM 37.4 °F 31.4 °F 30.2 °F 75% 30.13 in 10.0 mi WSW 8.1 mph - N/A   Clear
8:15 AM 37.4 °F 31.4 °F 30.2 °F 75% 30.13 in 10.0 mi WSW 8.1 mph - N/A   Clear
8:35 AM 39.2 °F 33.6 °F 30.2 °F 70% 30.15 in 10.0 mi West 8.1 mph - N/A   Clear
9:15 AM 39.2 °F 34.2 °F 30.2 °F 70% 30.16 in 10.0 mi West 6.9 mph - N/A   Clear
9:35 AM 41.0 °F 33.9 °F 26.6 °F 57% 30.17 in 10.0 mi WNW 12.7 mph - N/A   Clear
9:55 AM 41.0 °F 34.3 °F 23.0 °F 49% 30.18 in 10.0 mi WNW 11.5 mph 17.3 mph N/A   Clear
10:15 AM 41.0 °F 33.9 °F 21.2 °F 45% 30.19 in 10.0 mi WNW 12.7 mph - N/A   Clear
10:35 AM 41.0 °F 33.1 °F 19.4 °F 42% 30.20 in 10.0 mi WNW 15.0 mph 18.4 mph N/A   Clear
10:55 AM 41.0 °F 33.5 °F 15.8 °F 36% 30.21 in 10.0 mi West 13.8 mph 17.3 mph N/A   Clear
11:15 AM 41.0 °F 33.9 °F 15.8 °F 36% 30.21 in 10.0 mi WNW 12.7 mph 18.4 mph N/A   Clear
11:35 AM 42.8 °F 37.5 °F 19.4 °F 39% 30.21 in 10.0 mi WNW 9.2 mph - N/A   Clear
11:55 AM 41.0 °F 34.3 °F 17.6 °F 39% 30.21 in 10.0 mi WNW 11.5 mph 16.1 mph N/A   Clear
12:15 PM 42.8 °F 37.5 °F 15.8 °F 34% 30.20 in 10.0 mi West 9.2 mph - N/A   Clear
12:35 PM 42.8 °F 37.5 °F 15.8 °F 34% 30.18 in 10.0 mi WNW 9.2 mph - N/A   Clear
12:55 PM 42.8 °F 37.0 °F 15.8 °F 34% 30.18 in 10.0 mi West 10.4 mph - N/A   Clear
1:15 PM 42.8 °F 38.0 °F 15.8 °F 34% 30.17 in 10.0 mi WNW 8.1 mph - N/A   Clear
1:35 PM 42.8 °F 37.5 °F 17.6 °F 36% 30.17 in 10.0 mi West 9.2 mph 17.3 mph N/A   Clear
1:55 PM 42.8 °F 37.5 °F 17.6 °F 36% 30.16 in 10.0 mi West 9.2 mph - N/A   Clear
2:15 PM 42.8 °F 36.2 °F 15.8 °F 34% 30.16 in 10.0 mi West 12.7 mph 17.3 mph N/A   Clear
2:35 PM 42.8 °F 39.3 °F 15.8 °F 34% 30.16 in 10.0 mi West 5.8 mph - N/A   Clear
2:55 PM 42.8 °F 37.5 °F 14.0 °F 31% 30.16 in 10.0 mi West 9.2 mph - N/A   Clear
3:15 PM 44.6 °F 39.7 °F 14.0 °F 29% 30.16 in 10.0 mi West 9.2 mph - N/A   Clear
3:35 PM 42.8 °F 40.1 °F 15.8 °F 34% 30.16 in 10.0 mi WSW 4.6 mph - N/A   Clear
4:15 PM 42.8 °F 39.3 °F 15.8 °F 34% 30.16 in 10.0 mi WNW 5.8 mph - N/A   Clear
4:35 PM 42.8 °F 39.3 °F 17.6 °F 36% 30.15 in 10.0 mi West 5.8 mph - N/A   Clear
4:55 PM 42.8 °F 40.1 °F 17.6 °F 36% 30.15 in 10.0 mi West 4.6 mph - N/A   Clear
5:15 PM 41.0 °F 38.0 °F 17.6 °F 39% 30.14 in 10.0 mi West 4.6 mph - N/A   Clear
5:35 PM 41.0 °F 38.0 °F 19.4 °F 42% 30.15 in 10.0 mi WSW 4.6 mph - N/A   Clear
5:55 PM 39.2 °F 35.9 °F 19.4 °F 45% 30.15 in 10.0 mi WSW 4.6 mph - N/A   Clear
6:15 PM 37.4 °F 32.8 °F 19.4 °F 48% 30.16 in 10.0 mi WNW 5.8 mph - N/A   Clear
6:35 PM 37.4 °F 32.8 °F 19.4 °F 48% 30.17 in 10.0 mi WNW 5.8 mph - N/A   Clear
6:55 PM 35.6 °F 31.7 °F 19.4 °F 52% 30.17 in 10.0 mi WNW 4.6 mph - N/A   Clear
7:15 PM 35.6 °F 30.7 °F 17.6 °F 48% 30.18 in 10.0 mi WNW 5.8 mph - N/A   Clear
7:35 PM 33.8 °F 30.8 °F 19.4 °F 56% 30.17 in 10.0 mi NW 3.5 mph - N/A   Clear
7:55 PM 35.6 °F - 17.6 °F 48% 30.17 in 10.0 mi Calm Calm - N/A   Clear
8:15 PM 33.8 °F 29.6 °F 17.6 °F 52% 30.17 in 10.0 mi NNW 4.6 mph - N/A   Clear
8:35 PM 33.8 °F 30.8 °F 15.8 °F 48% 30.18 in 10.0 mi WNW 3.5 mph - N/A   Clear
8:55 PM 33.8 °F 30.8 °F 14.0 °F 44% 30.18 in 10.0 mi West 3.5 mph - N/A   Clear
9:15 PM 33.8 °F - 12.2 °F 41% 30.17 in 10.0 mi Calm Calm - N/A   Clear
9:35 PM 32.0 °F - 12.2 °F 44% 30.17 in 10.0 mi Calm Calm - N/A   Clear
9:55 PM 30.2 °F - 14.0 °F 51% 30.16 in 10.0 mi Calm Calm - N/A   Clear
10:15 PM 32.0 °F - 14.0 °F 48% 30.16 in 10.0 mi Calm Calm - N/A   Clear
10:35 PM 30.2 °F - 12.2 °F 47% 30.16 in 10.0 mi Calm Calm - N/A   Clear
10:55 PM 30.2 °F - 12.2 °F 47% 30.16 in 10.0 mi Calm Calm - N/A   Clear
11:15 PM 28.4 °F 24.6 °F 12.2 °F 51% 30.16 in 10.0 mi WNW 3.5 mph - N/A   Clear
11:35 PM 28.4 °F - 14.0 °F 55% 30.16 in 10.0 mi Calm Calm - N/A   Clear
11:55 PM 28.4 °F - 15.8 °F 59% 30.15 in 10.0 mi Calm Calm - N/A   Clear